EHI
0 0 0 0 1 3 2 1 0 0 0 0 0 0 1 1 1 0 4 17 25 13 2 1 1 0 0 0 0 0 0 0 0 0 0 0 0 0 0 0 0 0 0 0 0 0 0 0 0
0 0 0 0 0 1 1 0 0 0 0 0 0 0 0 0 0 0 4 13 16 7 1 1 0 0 0 0 0 0 0 0 0 0 0 0 0 0 0 0 0 0 0 0 0 0 0 0 0
0 0 0 0 0 0 0 0 0 0 0 0 0 0 0 0 0 0 3 7 6 2 0 1 0 0 0 0 0 0 0 0 0 0 0 0 0 0 0 0 0 0 0 0 0 0 0 0 0
0 0 0 0 0 0 0 0 0 0 0 0 0 0 0 0 0 1 3 4 2 1 1 1 0 0 0 0 0 0 0 0 0 0 0 0 0 0 0 0 0 0 0 0 0 0 0 0 0
0 0 0 0 0 0 0 0 0 0 0 0 0 0 0 0 0 1 3 4 5 5 4 1 0 0 0 0 0 0 0 0 0 0 0 0 0 0 0 0 0 0 0 0 0 0 0 0 0
0 0 0 0 0 0 0 0 0 0 0 0 0 0 0 0 0 0 1 2 9 16 11 3 1 0 0 0 0 0 0 0 0 0 0 0 0 0 0 0 0 0 0 0 0 0 0 0 1
0 0 0 0 0 0 0 0 0 0 0 0 0 0 0 0 0 0 0 1 13 26 21 6 1 1 0 0 0 0 0 0 0 0 0 0 0 0 0 0 0 0 0 0 0 0 0 0 1
0 0 0 0 0 0 0 0 0 0 0 1 1 0 0 0 0 0 0 1 14 34 30 10 2 2 1 0 0 0 0 0 0 0 0 0 0 1 2 2 1 0 0 0 1 1 1 2 2
0 0 0 0 0 0 0 0 0 0 1 5 7 4 1 0 0 1 1 0 13 35 35 17 12 13 5 3 6 4 1 0 0 0 0 0 0 1 5 8 10 13 15 15 14 11 7 4 4
0 0 0 0 0 0 0 0 0 1 4 14 21 14 4 3 3 2 1 3 15 31 30 22 33 35 15 14 22 12 6 11 9 4 8 14 13 6 6 16 30 39 40 35 30 23 12 5 3
0 0 0 0 0 0 0 0 0 1 6 21 29 21 11 11 11 7 6 15 28 30 18 23 51 59 32 29 41 27 21 34 34 25 32 47 41 19 11 27 51 60 54 41 30 22 14 6 3
0 0 0 0 0 0 0 0 0 0 6 16 21 19 17 21 21 18 21 37 50 36 16 26 62 76 57 46 49 41 34 46 57 58 64 73 67 41 27 39 56 60 56 45 33 27 24 20 17
0 0 0 0 0 0 0 0 0 1 4 7 10 14 19 24 28 33 45 65 71 51 28 38 71 89 81 64 54 42 37 47 63 74 80 81 75 58 43 45 49 49 49 51 48 43 41 41 39
0 0 0 0 0 0 0 0 0 2 4 4 6 12 17 23 33 51 73 87 85 67 53 61 80 94 93 79 61 45 39 48 59 68 72 73 71 60 43 38 38 39 43 50 51 48 47 46 44
0 0 0 0 0 0 0 0 0 1 3 4 6 9 19 29 40 62 86 96 92 83 80 82 85 93 96 88 73 54 44 48 57 58 55 55 58 49 34 28 31 37 41 43 43 44 46 45 42
0 0 0 0 0 0 0 0 0 0 1 1 3 8 24 43 53 65 83 92 92 93 96 93 88 93 98 92 80 61 50 52 54 46 44 44 41 32 23 19 24 30 30 29 31 39 45 48 48
0 0 0 0 0 0 0 0 0 0 0 1 2 8 30 57 69 71 77 85 90 96 99 96 94 96 99 92 77 60 53 49 40 29 32 35 25 15 12 10 13 15 15 13 15 25 36 39 40
0 0 0 0 0 0 0 0 0 1 2 4 6 13 36 64 77 76 76 79 87 94 96 97 98 99 97 89 71 56 45 33 19 14 20 21 13 7 6 4 3 5 5 4 5 10 17 19 18
0 0 0 0 0 0 0 0 1 3 6 8 13 25 45 65 73 71 68 70 77 83 88 92 95 93 89 80 68 56 40 21 8 9 16 17 10 5 5 3 1 1 2 1 1 2 4 4 4
0 0 0 0 0 0 0 1 3 7 11 17 27 41 54 61 59 52 46 47 54 61 68 77 83 80 73 67 60 52 40 22 11 16 27 29 21 13 8 6 3 1 1 0 0 0 0 0 1
0 0 0 0 0 0 0 1 6 13 21 33 46 55 55 48 40 30 22 24 31 39 49 60 67 67 63 63 57 51 45 32 23 30 45 49 38 23 14 9 5 2 1 0 0 0 0 0 0
0 0 0 0 0 0 0 1 7 21 37 51 59 55 44 30 21 16 13 15 20 29 40 51 59 63 67 70 68 62 54 45 42 50 61 62 47 31 22 15 9 5 2 0 0 0 0 0 0
0 0 0 0 0 0 0 1 7 26 49 61 57 44 30 18 11 11 13 13 14 20 31 43 53 62 69 75 74 70 61 55 58 65 70 65 51 39 33 25 19 12 5 2 1 1 1 0 1
0 0 0 0 0 0 0 0 8 29 53 58 46 30 18 10 6 7 9 8 6 9 18 28 40 49 56 62 66 66 64 64 66 70 72 67 59 53 47 41 35 25 13 6 3 2 1 1 1
0 0 0 0 0 0 0 3 14 31 41 39 28 15 7 3 2 2 3 2 1 3 7 13 20 26 31 35 44 52 57 62 67 71 73 72 69 66 62 56 51 38 22 11 5 2 1 1 1
0 0 0 0 0 0 1 8 19 23 19 14 9 4 1 0 0 0 0 0 0 0 2 3 6 8 9 12 19 28 36 45 56 66 72 77 78 76 73 68 60 48 32 18 10 5 1 1 1
0 0 0 0 0 0 2 9 13 10 4 1 0 0 0 0 0 0 0 0 0 0 0 0 0 1 1 2 4 8 13 21 32 43 55 67 74 76 75 71 64 54 40 28 18 9 3 1 1
0 0 0 0 0 0 1 5 10 8 3 0 0 0 0 0 0 0 0 0 0 0 0 0 0 0 0 0 0 1 3 6 11 18 28 39 49 58 63 62 59 52 42 32 23 13 5 1 0
0 0 0 0 0 0 0 3 10 11 4 0 0 0 0 0 0 0 0 0 0 0 0 0 0 0 0 0 0 0 0 1 2 4 8 12 19 28 36 42 43 40 32 25 20 11 4 2 1
0 0 0 0 0 0 0 3 8 8 3 0 0 0 0 0 0 0 0 0 0 0 0 0 0 0 0 0 0 0 0 0 0 0 1 2 5 9 15 23 30 31 25 19 13 7 3 2 1
Wind_Speed
9 11 10 7 7 7 3 11 12 12 11 10 9 10 19 16 12 13 15 22 24 21 19 18 16 15 15 15 15 14 14 13 12 11 10 9 9 9 9 9 8 8 8 8 7 7 7 7 7
10 13 9 6 5 4 5 10 11 10 7 7 8 11 16 15 15 16 18 22 23 21 18 17 17 16 15 15 14 14 14 13 12 11 10 9 9 8 8 8 7 7 7 6 6 6 6 6 5
12 14 7 6 3 3 4 9 8 9 8 8 11 14 13 11 13 14 18 22 21 19 17 18 19 17 16 15 14 14 13 13 12 11 10 9 8 8 7 7 6 6 6 5 5 5 5 5 4
9 8 8 7 3 5 2 7 5 9 9 8 12 12 11 8 10 17 19 21 21 18 18 19 19 17 16 15 14 13 13 12 12 11 10 9 8 7 7 6 6 5 5 5 5 5 5 5 5
9 8 10 5 3 4 2 5 7 7 7 12 16 14 11 9 16 19 18 20 19 18 17 18 18 17 15 14 13 13 12 11 10 10 9 8 8 7 7 7 6 6 6 6 6 6 6 6 7
7 9 11 3 2 8 2 4 7 6 6 11 17 15 10 12 15 17 18 18 18 19 18 17 18 17 15 14 13 12 12 11 10 9 9 8 8 8 8 8 8 8 8 8 8 8 8 8 9
11 13 16 8 4 7 8 3 8 5 4 6 13 14 12 14 15 16 16 16 18 20 18 16 15 14 15 14 14 13 12 11 11 10 10 10 9 9 10 10 10 10 10 10 10 10 10 10 10
11 11 18 10 6 8 11 5 6 6 4 1 7 12 14 17 16 16 15 14 17 20 18 16 15 14 13 12 14 14 13 12 12 11 11 11 11 12 13 12 13 13 13 12 12 12 12 12 12
14 12 16 12 2 5 4 4 3 6 11 7 4 9 21 21 18 16 14 13 13 17 17 16 17 14 13 13 14 14 13 13 12 11 13 11 9 11 12 17 16 17 16 15 14 14 14 13 14
11 12 17 10 5 2 2 6 3 3 6 3 15 15 16 19 18 17 15 15 13 13 16 14 16 15 13 12 12 10 10 11 10 9 11 10 8 7 9 10 18 19 19 17 16 16 14 13 10
14 17 17 13 8 7 7 8 8 7 4 11 14 8 3 12 15 15 15 14 12 10 11 14 13 13 11 6 10 7 7 8 11 11 8 7 5 5 7 3 7 11 13 10 11 13 10 10 9
16 15 16 12 12 10 11 13 11 7 5 18 23 18 16 15 16 16 15 14 13 11 10 11 12 11 6 4 5 5 4 5 6 8 9 6 4 4 3 3 1 3 4 5 5 5 9 9 9
13 13 16 16 12 12 13 13 14 10 6 19 23 23 20 20 17 16 15 14 14 12 11 8 9 10 6 3 1 3 2 2 2 2 2 2 2 2 2 2 2 4 3 3 3 3 4 4 5
14 16 15 14 14 14 14 14 15 15 8 16 21 21 21 20 18 16 16 14 15 14 13 10 10 10 8 5 3 1 1 1 1 2 2 2 1 1 1 3 3 3 4 3 3 5 4 4 4
14 15 17 18 19 18 15 15 15 17 13 11 16 19 21 20 17 16 16 15 16 14 12 11 11 12 9 8 7 5 4 3 2 2 3 3 2 2 2 3 4 3 3 3 4 5 5 6 6
15 16 19 21 21 17 12 13 14 13 9 5 7 10 13 13 15 15 15 13 15 15 12 11 12 13 10 6 5 4 4 3 3 3 4 4 3 3 2 3 3 2 2 3 4 5 5 5 5
17 19 20 21 19 13 9 12 12 6 3 5 6 8 10 12 12 11 13 12 11 11 12 10 8 11 11 9 6 5 3 2 2 3 3 4 2 1 1 1 2 2 3 3 5 3 2 4 4
12 13 15 15 6 4 8 12 11 6 5 7 7 7 7 9 8 5 5 8 8 9 10 9 7 9 9 7 5 4 4 4 4 2 4 4 1 1 2 2 3 4 3 4 4 5 4 4 5
14 14 13 9 3 1 7 12 13 9 6 6 6 3 0 2 3 1 2 3 2 4 8 8 7 6 4 3 4 4 3 3 2 2 4 4 1 1 1 3 3 3 3 4 5 5 6 6 5
11 11 11 11 8 7 9 12 13 10 8 3 4 7 8 10 15 17 17 13 14 12 7 6 7 5 3 2 1 1 1 1 1 2 4 3 2 1 2 2 2 4 4 5 5 5 4 5 5
9 10 10 10 10 11 14 16 14 11 2 8 14 18 19 17 15 13 12 12 14 15 14 8 5 3 2 2 2 1 2 1 2 2 3 4 3 2 1 1 3 3 4 4 4 4 6 5 5
8 8 10 12 12 13 15 12 6 2 9 13 15 16 16 15 13 11 11 10 9 9 9 9 8 4 3 1 2 3 2 2 2 1 2 4 4 3 3 3 3 3 4 5 5 4 4 5 5
10 10 11 14 15 16 15 13 1 8 10 13 14 15 15 16 14 14 14 11 10 10 9 9 9 9 8 7 5 4 4 4 3 2 0 2 3 5 5 5 4 3 4 5 5 4 5 4 6
9 12 14 13 9 10 13 14 3 4 10 11 12 13 14 15 15 15 14 12 11 11 10 10 9 10 10 10 8 7 7 7 7 6 5 3 3 4 6 6 4 4 4 5 4 5 6 5 6
10 11 10 9 3 4 7 10 0 7 11 12 13 12 12 13 13 13 13 12 11 12 11 10 10 10 10 11 11 9 8 7 6 6 6 6 4 3 3 3 3 3 4 5 5 5 6 6 7
10 10 10 13 13 6 10 6 8 10 12 12 11 10 11 11 10 10 10 10 9 10 10 9 9 8 8 8 8 7 8 6 6 7 6 6 5 4 2 1 2 4 5 6 5 5 6 6 5
7 9 14 14 14 13 4 9 8 9 8 8 9 9 9 9 9 9 8 8 7 7 6 6 6 5 6 6 5 4 6 6 7 7 7 6 6 7 6 4 4 5 5 6 6 5 6 6 6
5 8 7 8 10 13 13 4 3 7 5 4 5 7 8 8 9 10 9 8 7 6 4 4 3 3 4 5 5 6 5 5 5 6 6 6 7 7 8 7 7 6 6 6 6 6 6 6 6
8 8 7 7 9 11 14 5 7 7 4 3 5 5 6 8 10 10 10 10 10 9 7 6 5 5 5 5 5 6 6 7 7 6 6 6 6 7 7 7 8 8 8 7 7 7 7 6 6
9 8 7 7 8 10 11 4 6 4 4 3 5 6 8 9 10 11 12 11 11 10 10 9 8 7 6 6 6 6 6 7 7 8 7 7 7 7 8 8 8 9 9 8 7 8 7 6 6
Wind_Direction
241 239 233 252 257 254 57 70 61 61 65 63 41 43 59 56 63 91 115 113 116 125 133 137 137 137 136 136 137 137 136 135 133 130 129 126 122 118 115 111 109 107 106 105 104 102 101 101 103
269 260 244 245 270 304 64 75 72 65 66 88 76 71 79 74 88 107 112 116 122 130 140 141 142 142 141 140 140 140 139 138 137 135 135 134 132 130 127 123 120 118 115 114 113 112 111 112 115
265 262 262 239 280 296 80 84 89 93 77 81 79 62 67 91 106 113 120 125 127 134 139 139 148 147 147 146 145 145 145 144 144 144 145 145 145 144 141 139 138 137 136 136 135 134 133 134 138
268 249 232 244 219 252 103 99 99 93 98 99 98 87 79 80 115 123 131 127 127 136 138 144 152 151 151 151 151 151 151 151 152 153 155 157 159 161 160 162 165 167 169 172 173 173 171 174 181
259 256 254 262 298 264 115 99 89 82 81 88 91 95 95 101 115 129 136 129 137 140 138 148 154 155 155 156 156 157 157 157 158 161 165 170 174 179 182 185 190 195 199 203 205 206 206 206 209
272 268 277 281 311 299 258 117 94 85 107 115 114 109 106 123 129 141 140 143 146 137 139 146 155 157 159 161 162 163 164 166 169 174 180 187 194 200 205 207 209 213 216 218 221 223 223 222 224
272 291 291 277 154 295 286 166 132 155 149 117 116 116 132 146 146 149 147 153 146 138 137 150 158 163 165 168 170 172 173 176 181 188 194 202 209 215 220 223 223 223 223 225 227 230 233 233 233
279 291 289 277 174 204 250 238 134 138 75 99 146 134 148 147 155 150 154 158 148 139 144 157 160 164 169 174 179 180 182 186 192 199 206 213 221 226 229 228 224 226 224 225 228 232 235 238 239
269 270 276 290 292 207 244 272 156 147 155 208 24 112 140 147 156 153 162 164 155 147 150 164 162 165 175 179 177 182 188 195 199 207 215 219 229 230 224 226 223 221 223 223 226 231 235 238 241
250 265 275 312 344 285 228 277 259 201 189 91 45 62 126 151 157 164 170 167 160 154 158 167 163 165 181 185 162 182 190 191 202 210 204 208 225 250 259 220 215 217 219 221 226 231 235 237 242
254 264 283 307 311 314 301 274 253 237 155 108 89 30 281 168 167 173 174 170 159 164 173 165 158 159 183 176 158 186 194 180 194 215 208 199 214 242 261 240 205 214 220 222 227 227 228 230 230
255 268 286 292 299 308 296 296 297 288 134 134 135 164 222 211 185 180 176 171 160 175 190 172 154 156 182 183 176 177 191 175 190 196 205 198 194 234 267 295 289 211 217 219 238 229 223 230 242
268 269 273 275 276 275 277 282 288 286 136 136 146 169 198 213 196 183 174 170 163 178 187 179 148 146 158 184 253 196 197 172 149 119 158 154 165 215 288 314 318 306 295 272 252 280 288 286 288
277 284 282 282 279 271 267 269 270 268 207 151 154 174 200 209 201 184 173 170 168 180 182 170 155 150 157 164 182 281 294 97 121 104 94 84 124 161 273 277 272 273 277 293 298 291 289 283 276
261 271 273 267 260 252 252 259 262 265 245 177 173 185 193 202 199 184 176 173 172 179 174 161 166 159 165 172 181 190 210 196 174 158 179 195 198 188 225 254 256 253 258 264 266 269 264 264 263
265 257 257 253 247 241 241 265 273 275 261 229 208 206 194 190 194 184 178 177 175 177 166 163 173 162 161 163 176 186 209 179 177 187 194 179 177 190 214 253 266 295 282 264 257 248 253 259 264
245 243 250 252 242 227 236 265 276 286 307 284 260 234 204 185 197 189 179 179 179 166 157 162 161 151 156 164 176 201 192 163 193 203 162 129 151 218 231 277 291 285 273 278 288 295 292 290 286
296 277 252 250 215 189 263 279 291 315 297 281 272 239 200 189 194 193 189 192 180 150 147 154 151 141 153 166 178 194 176 178 196 173 125 119 110 16 33 322 330 342 319 305 304 315 305 285 274
313 312 313 319 32 232 270 288 293 296 299 300 317 334 106 203 213 116 39 4 16 124 138 146 140 136 156 170 175 182 173 186 174 156 124 113 97 20 18 303 324 310 291 308 317 311 305 298 285
290 299 303 310 323 306 288 278 280 282 269 287 348 18 27 40 30 27 25 20 23 13 43 88 111 139 183 162 164 146 114 168 161 106 116 147 169 158 280 334 331 310 317 302 280 278 280 287 293
309 320 322 321 316 295 279 269 261 258 272 64 50 50 48 51 55 46 36 25 28 24 26 16 61 109 243 148 198 214 138 220 242 188 173 159 144 158 234 291 284 297 294 289 313 308 291 291 294
306 323 316 303 291 281 280 281 266 166 84 68 59 56 59 58 57 61 59 55 41 43 36 21 16 28 2 354 328 316 288 263 258 214 173 145 159 191 203 224 245 263 280 293 292 302 322 300 291
305 306 292 284 280 279 281 276 209 111 94 70 61 59 60 63 56 54 57 56 48 45 47 38 28 19 5 2 357 336 307 303 306 319 202 158 196 197 202 207 215 242 262 270 278 291 282 280 282
306 299 287 277 285 293 323 315 241 124 113 102 80 68 63 63 63 59 57 56 54 50 48 46 41 34 22 15 6 353 334 323 318 318 311 285 246 214 205 196 194 220 249 270 279 274 273 268 271
321 306 299 299 286 229 231 259 89 82 85 87 80 70 66 64 62 60 55 52 51 49 47 44 40 34 29 28 15 6 350 336 321 312 299 287 274 257 218 197 179 226 257 266 266 267 268 270 271
313 301 300 308 311 297 207 215 101 82 79 81 78 67 57 53 54 55 54 50 45 44 41 39 36 30 25 28 16 13 7 354 345 344 327 311 304 303 322 253 223 235 248 262 267 275 273 270 272
303 321 326 315 307 308 304 101 100 90 80 73 67 56 43 32 28 30 31 33 32 30 34 30 26 17 8 6 356 359 3 353 346 337 329 328 329 317 320 308 269 251 249 252 260 263 269 273 273
274 306 315 318 319 318 322 75 150 138 119 80 51 35 22 8 5 5 0 358 358 349 352 359 353 344 335 332 331 333 341 330 327 325 332 332 330 324 315 304 293 278 264 254 252 258 263 270 272
312 308 321 319 319 319 316 22 64 87 71 46 41 24 2 349 344 340 336 335 330 327 330 337 338 333 325 323 321 320 317 317 315 309 311 317 318 318 313 303 290 280 273 263 255 256 262 267 275
322 321 323 316 315 308 309 58 63 74 72 34 347 337 335 327 322 320 319 318 316 318 322 323 323 316 309 305 301 299 300 301 301 301 306 309 307 305 305 305 297 283 274 267 263 261 266 269 275